User: anonymous
Location: Oshawa
(43.9000°N, 78.8670°W)
Time: 05:27:02
(UTC-04:00)
Language:

Cosmos 2333 Rocket - Orbit

View from above orbital plane
View from above orbital plane
View from above satellite
View from above satellite

Ground track
Ground track

The orbit data is extracted from the following two-line orbital elements,

1 24298U 96051B   14235.08478262 -.00000147  00000-0 -53444-4 0  5262
2 24298 070.8634 071.0754 0018382 271.9230 224.9627 14.12467026926513
Epoch (UTC): 23 August 2014 02:02:05
Eccentricity: 0.0018382
inclination: 70.8634°
perigee height: 837 km
apogee height: 864 km
right ascension of ascending node: 71.0754°
argument of perigee: 271.9230°
revolutions per day: 14.12467026
mean anomaly at epoch: 224.9627°
orbit number at epoch: 92651

The dashed part of the orbit path shows where the satellite is in the earth's shadow,  

DLR